Skip Page Navigation
NASA JPL Caltech
NASA Logo - Jet Propulsion Laboratory + View the NASA Portal
+ Center for Near-Earth Object Studies
JPL Home Earth Solar System Stars & Galaxies Technology
JPL Solar System Dynamics
BODIES ORBITS EPHEMERIDES TOOLS PHYSICAL DATA DISCOVERY FAQ SITE MAP
IMPORTANT: The SSD Announcement email list is now available. Major changes are coming in the near future, including possible hostname and/or URL changes. To be notified of such changes, subscribe to this email list.

Please visit this page for more details.


JPL Small-Body Database Browser
Search: [ help ]  
3448 Narbut (1977 QA5)
Classification: Main-belt Asteroid          SPK-ID: 2003448
Ephemeris | Orbit Diagram | Orbital Elements | Mission Design | Physical Parameters | Discovery Circumstances | Close-Approach Data ]

[ show orbit diagram ]
Orbital Elements at Epoch 2459000.5 (2020-May-31.0) TDB
Reference: JPL 36 (heliocentric ecliptic J2000)
 Element Value Uncertainty (1-sigma)   Units 
e .1178216452025384 3.6037e-08  
a 2.191919606664882 6.2906e-09 au
q 1.933664032455925 8.0629e-08 au
i 3.385611922951167 3.5944e-06 deg
node 45.2415582430332 6.571e-05 deg
peri 349.6583950036085 6.7799e-05 deg
M 7.783767629664117 1.7914e-05 deg
tp 2458974.871527597796
(2020-May-05.37152760)
5.8945e-05 TDB
period 1185.319308561055
3.25
5.1026e-06
1.397e-08
d
yr
n .3037156295353276 1.3075e-09 deg/d
Q 2.45017518087384 7.0318e-09 au
  Orbit Determination Parameters
   # obs. used (total)      2546  
   data-arc span      24410 days (66.83 yr)  
   first obs. used      1953-03-08  
   last obs. used      2020-01-06  
   planetary ephem.      DE431  
   SB-pert. ephem.      SB431-N16  
   condition code      0  
   norm. resid. RMS      .44464  
   source      ORB  
   producer      Otto Matic  
   solution date      2020-Feb-22 16:47:27  

Additional Information
 Earth MOID = .940335 au 
 Jupiter MOID = 2.93122 au 
 T_jup = 3.661 
[ show covariance matrix ]

Ephemeris | Orbit Diagram | Orbital Elements | Mission Design | Physical Parameters | Discovery Circumstances | Close-Approach Data ]

Physical Parameter Table
Parameter Symbol Value Units Sigma Reference Notes
absolute magnitude H 12.9   n/a MPO337279  
diameter diameter 5.972 km 0.099 urn:nasa:pds:neowise_diameters_albedos::2.0[mainbelt] (http://adsabs.harvard.edu/abs/2012ApJ...759L...8M)  
rotation period rot_per 570.37 h n/a LCDB (Rev. 2019-August); Warner et al., 2009 Result based on less than full coverage, so that the period may be wrong by 30 percent or so.
Published Reference List:
[Waszczak, A.; Chang, C.-K.; Ofeck, E.O.; Laher, F.; et al. (2015) Astron. J. 150, A75.]
geometric albedo albedo 0.376   0.069 urn:nasa:pds:neowise_diameters_albedos::2.0[mainbelt] (http://adsabs.harvard.edu/abs/2012ApJ...759L...8M)  

3448 Narbut (1977 QA5)          Discovered 1977-Aug-22 by Chernykh, N. at Nauchnyj
Reference: DISCOVERY.DBLast Updated: 2003-08-29

[ show close-approach data ]
Alternate Designations
 1977 QA5 = 1953 EH1 = 1976 GW5 
Ephemeris | Orbit Diagram | Orbital Elements | Mission Design | Physical Parameters | Discovery Circumstances | Close-Approach Data ]
ABOUT SSD CREDITS/AWARDS PRIVACY/COPYRIGHT GLOSSARY LINKS
FirstGov 2020-Mar-29 09:19 UT
(server date/time)  
NASA Home Page
Site Manager:   Ryan S. Park
Webmaster  Alan B. Chamberlin